Terug naar catalogus

SL-12 R/B(2)

ActiefGEO
NORAD 23451·ROCKET BODY·🇷🇺 Russia

Gelanceerd Dec 28, 1994 vanaf Baikonur Cosmodrome

Loading…

TLE

VersSource: Space-Track

Epoch: Sep 14, 2026, 05:40 UTC

1 23451U 94087D   26257.23623508 -.00000244  00000-0  00000-0 0  9995
2 23451  14.3058 350.3132 0008842 149.2234 220.8229  1.00065087 48174

Volg SL-12 R/B(2) in realtime met AllMySat

Download on the App Store